Regional Weather Roundup
Issued by NWS

Home | Current Version | Previous Version | Text Only | Print | Product List | Glossary Off
Versions: 1 2 3 4 5 6 7 8 9 10 11 12 13 14 15 16 17 18 19 20 21 22 23 24 25 26 27 28

000
ASUS45 KBOI 102010
RWRID

IDAHO REGIONAL WEATHER ROUNDUP
NATIONAL WEATHER SERVICE BOISE ID
100 PM MST SAT DEC 10 2016

NOTE: "FAIR" INDICATES FEW OR NO CLOUDS BELOW 12000 FEET
WITH NO SIGNIFICANT WEATHER AND/OR OBSTRUCTIONS TO VISIBILITY

IDZ012-014-102100-
SOUTHWEST IDAHO


CITY           SKY/WX    TMP DP  RH WIND       PRES   REMARKS
BOISE          LGT RAIN  34  34 100 NW6       29.88R VSB 1/4 WCI  29
CALDWELL       MIX PCPN  32  31  96 W9        29.91S FOG     WCI  24
MOUNTAIN HOME  FOG       34  34 100 CALM      29.86F VSB<1/4
$$

IDZ016-017-102100-
SOUTHCENTRAL IDAHO


CITY           SKY/WX    TMP DP  RH WIND       PRES   REMARKS
BURLEY         LGT RAIN  38  37  97 SW6       29.84S WCI  33
JEROME         CLOUDY    38  38 100 SW7       29.86R WCI  33
TWIN FALLS     LGT RAIN  40  37  89 W12       29.86R WCI  33
$$

IDZ019>023-102100-
SOUTHEAST IDAHO


CITY           SKY/WX    TMP DP  RH WIND       PRES   REMARKS
IDAHO FALLS    CLOUDY    34  32  92 SW28G36   29.74F WCI  21
POCATELLO      LGT RAIN  39  35  86 S17       29.82F WCI  30
REXBURG        CLOUDY    34  33  96 SW21G32   29.73F WCI  22
$$

IDZ006-010-011-018-031-032-102100-
CENTRAL IDAHO MOUNTAINS


CITY           SKY/WX    TMP DP  RH WIND       PRES   REMARKS
MCCALL         PTSUNNY   32  28  85 W6        29.79R WCI  26
HAILEY         CLOUDY    36  34  93 E8        29.77F WCI  29
STANLEY          N/A     34  23  64 SW7       29.76S WCI  28
SALMON         PTSUNNY   21  18  86 CALM      29.75R
CHALLIS        CLOUDY    32  27  81 SW6       29.69S WCI  26
$$

IDZ002-004-006-007-026-102100-
NORTHERN IDAHO


CITY           SKY/WX    TMP DP  RH WIND       PRES   REMARKS
LEWISTON       CLOUDY    27  22  81 CALM      29.96S
LOWELL         NOT AVBL
COEUR D`ALENE  CLOUDY    24  20  84 SW7       29.91R WCI  16
MULLAN PASS    FOG       17  15  92 VRB5      29.67R VSB 1/2 WCI  10
$$




USA.gov is the U.S. government's official web portal to all federal, state and local government web resources and services.